155  
ASUS44 KLCH 210110  
RWRLCH  
REGIONAL WEATHER ROUNDUP  
NATIONAL WEATHER SERVICE LAKE CHARLES LA  
800 PM CDT WED SEP 20 2017  
 
NOTE: "FAIR" INDICATES FEW OR NO CLOUDS BELOW 12,000 FEET WITH NO  
SIGNIFICANT WEATHER AND/OR S TO VISIBILITY
.  
 
ACROSS SOUTHEAST TEXAS  
 
CITY SKY/WX TMP DP RH WIND PRES REMARKS
 
BEAUMONT CLEAR 79 76 90 S6 29.93R  
BEAUMONT CITY FAIR 82 76 83 SE6 29.93R  
ORANGE CLEAR 80 78 91 S6 29.95R  
JASPER CLEAR 79 76 92 CALM 29.96R  

 
 
ACROSS CENTRAL LOUISIANA  
 
CITY SKY/WX TMP DP RH WIND PRES REMARKS
 
LEESVILLE CLEAR 79 74 83 E5 29.94R  
FULLERTON FAIR 78 75 90 CALM 29.93R  
ALEXANDRIA INT CLOUDY 81 74 79 SE5 29.94R  
ESLER FIELD PTCLDY 76 71 85 E5 29.97R  
DERIDDER FAIR 79 78 96 E3 29.96R  
OAKDALE PTCLDY 78 75 93 CALM 29.96R  
OPELOUSAS MOCLDY 77 74 92 CALM 29.97R  

 
 
ACROSS SOUTHWEST AND SOUTH CENTRAL LOUISIANA  
 
CITY SKY/WX TMP DP RH WIND PRES REMARKS
 
SULPHUR CLEAR 81 74 80 SE6 29.95R  
LAKE CHARLES CLEAR 79 76 90 S7 29.94R  
CHENNAULT INT PTCLDY 79 75 89 SE6 29.95R  
CAMERON PHI N/A 82 77 83 S8 29.94R  
DEQUINCY FAIR 79 75 87 SE3 29.95R  
JENNINGS TSTM 81 76 84 SE5 29.97R  
LAFAYETTE CLEAR 81 76 84 CALM 29.98R  
NEW IBERIA CLOUDY 79 73 82 SE5 29.98R  
ABBEVILLE FAIR 79 77 94 S5 29.98R  
PATTERSON CLEAR 77 71 82 E3 29.99R  
SALT POINT N/A 81 73 76 CALM 29.96S  

 
 
SELECTED SITES ACROSS THE REGION  
 
CITY SKY/WX TMP DP RH WIND PRES REMARKS
 
HOUSTON BUSH PTCLDY 83 76 79 SE10 29.89R  
HOUSTON HOBBY PTCLDY 83 76 79 SE7 29.89R  
GALVESTON PTCLDY 85 78 80 SE12 29.92R  
COLLEGE STAT CLEAR 86 74 67 SE9 29.87R  
CONROE PTCLDY 82 77 84 SE6 29.90R  
HUNTSVILLE CLEAR 85 73 67 SE3 29.90R  
LUFKIN CLEAR 78 73 84 SE6 29.91R  
SHREVEPORT PTCLDY 80 70 71 S7 29.92R  
MONROE CLOUDY 83 73 72 SE3 29.96R  
NATCHEZ MS TSTM 75 73 94 SE3 30.00R  
BATON ROUGE MOCLDY 77 70 79 NE6 29.97F  
N.O. INTL ARPT LGT RAIN 76 74 93 CALM 29.99R  
SLIDELL CLOUDY 78 74 87 CALM 29.98S  

 
 
MARINE REPORTS  
 
STATION/POSITION TIME SKY/WX TEMP WIND PRES VSBY
 
AIR SEA DIR/SP/G  
(UTC) (F) (DEG/KT/KT) (MB) (MI)  
BUOY 30 S HIGH I NOT AVBL  
SEA RIM ST PARK 0000 83 160/ 9/ 10 1013.5S  
PORT ARTHUR 0042 82 82 160/ 4/ 8 1013.8R  
SABINE PASS N 0042 83 85 150/ 8/ 11 1015.2R  
TEXAS POINT NOT AVBL  
CALCASIEU PASS 0042 85 170/ 9/ 10 1013.2R  
LK CHARLES BEACH 0042 83 80 1013.6R  
MARSH ISLAND 0000 84 N/A  
FRESH WATER LOCK 0042 82 85 110/ 4/ 6 1014.9R  
AMERADA PASS 0042 81 84 CALM / 1 1015.0R  

 
 
 
CLICK HERE TO GO TO PREVIOUS BULLETINS.

The Nexlab LA Page
The Nexlab TX Page Main Text Page